    Observer details:
    160 Castelmartini.  Observers M. Jaeger, E. Prosperi, S. Prosperi,
        W. Vollmann.  Measurer E. Prosperi.  0.35-m f/10 Schmidt-Cassegrain + CCD.
    381 Tokyo-Kiso.  Observers R. Ohsawa, T. Morokuma.  1.05-m f/3.1 Schmidt.
    585 Kyiv comet station.  Observer A. Baransky.  0.7-m f/4 reflector + CCD.
    900 Moriyama.  Observer Y. Ikari.  0.26-m f/7.0 reflector + CCD.
    C95 SATINO Remote Observatory, Haute Provence.  Observer J. Jahn.  0.60-m
        f/3.2 Newtonian reflector + CCD.
    G34 Oberfrauendorf.  Observer T. Felber.  0.25-m f/6.3 Schmidt-Cassegrain +
        CCD.
    G96 Mt. Lemmon Survey.  Observer B. M. Africano.  Measurers B. M. Africano,
        E. J. Christensen, G. A. Farneth, D. C. Fuls, A. R. Gibbs, A. D. Grauer,
        H. Groeller, R. A. Kowalski, S. M. Larson, G. J. Leonard, T. A. Pruyne,
        R. L. Seaman, F. C. Shelly.  1.5-m reflector + 10K CCD.
    H36 Sandlot Observatory, Scranton.  Observer G. Hug.  0.56-m reflector + CCD.
    I52 Steward Observatory, Mt. Lemmon Station.  Observer G. J. Leonard.
        Measurers B. M. Africano, E. J. Christensen, G. A. Farneth, D. C. Fuls,
        A. R. Gibbs, A. D. Grauer, H. Groeller, R. A. Kowalski, S. M. Larson,
        G. J. Leonard, T. A. Pruyne, R. L. Seaman, F. C. Shelly.  1.0-m reflector
        + CCD.
    K30 Luscherz.  Observer L. Grimm.  0.25-m f/4.8 Newtonian reflector + CCD.
    K41 Vegaquattro Astronomical Observatory, Novi Ligure.  Observer V. Luna.
        0.3-m Schmidt-Cassegrain + CCD.
    K61 Rokycany Observatory.  Observer M. Adamovsky.  0.51-m f/6.8 reflector +
        CCD.
    K63 G. Pascoli Observatory, Castelvecchio Pascoli.  Observer R. Bacci.
        0.41-m f/3.2 Newtonian reflector + CCD.
    L01 Visnjan Observatory, Tican.  Observer K. Korlevic.  1.0-m f/2.9 reflector
        + CCD.
    P93 Space Tracking and Communications Center, JAXA.  Observers K. Nishiyama,
        T. Fujiwara.  1.0-m f/3.0 reflector + CCD.
    Q66 Siding Spring-Janess-G, JAXA.  Observers T. Yanagisawa, H. Kurosaki,
        K. Kamiya, H. Onodera.  0.25-m f/2.8 reflector + CCD.
    Q67 JBL Observatory, Bathurst.  Observer H. Sato.  0.32-m f/9.1 astrograph +
        CCD.
    
    Orbital elements:
    2019 GW1                                                 Earth MOID = 0.0087 AU
    Epoch 2019 Apr. 27.0 TT = JDT 2458600.5                 MPC
    M 153.10169              (2000.0)            P               Q
    n   1.09098813     Peri.  221.41431     +0.56236799     -0.82483257
    a   0.9345216      Node   194.67652     +0.80620955     +0.56259897
    e   0.1148460      Incl.   13.29251     +0.18376182     +0.05597884
    P   0.90           H   26.2           G   0.15           U   6
    Residuals in seconds of arc
    190404 Q66 (2.1-  2.4-)   190404 585  0.1+  0.9-    190405 K30  0.0   0.2+
    190404 Q66 (1.8-  0.8-)   190404 K30  0.6+  0.4+    190405 K30  0.2+  0.4+
    190404 Q66 (0.4+  4.9+)   190404 K30  0.4-  0.3+    190405 160  0.1-  0.3-
    190404 Q66 (1.2+  3.9+)   190405 H36  0.2+  0.5+    190405 160  0.0   0.7-
    190404 P93  0.0   0.3+    190405 H36  0.1+  0.6+    190405 160  0.1+  0.2-
    190404 P93  0.5-  1.3-    190405 I52  0.5-  1.0-    190405 160  0.1-  0.5-
    190404 P93  0.5-  1.3-    190405 I52  0.3-  0.4-    190405 160  0.3-  0.6-
    190404 P93 (0.5-  2.3-)   190405 I52  0.5-  0.6-    190405 160  0.0   0.4-
    190404 G34  0.1-  0.9+    190405 I52  0.6-  0.9-    190405 160  0.2-  0.6-
    190404 G34  0.2-  0.1-    190405 H36  0.1+  0.4+    190405 K41  0.5-  0.5+
    190404 G34  0.3-  0.6+    190405 G96  0.1+  0.9-    190405 K41  0.4+  0.1+
    190404 K61  0.6+  1.2+    190405 G96  0.1-  0.6-    190405 K41 (0.6+  2.0+)
    190404 K61  0.3+  1.0+    190405 G96  0.1+  0.1-    190405 K41  0.2+  0.2+
    190404 K61  0.3+  0.7+    190405 381  0.6+  0.7+    190405 K41  0.4-  0.2+
    190404 K61  0.3+  1.3+    190405 381  0.2+  0.1-    190405 K41  0.6-  0.9+
    190404 K61  0.0   1.2+    190405 381  0.2+  0.3+    190405 L01  0.1-  0.4-
    190404 K61  0.1-  1.1+    190405 P93  0.1-  0.3-    190405 L01  0.1+  0.4-
    190404 K61  0.0   1.0+    190405 P93  0.1-  0.3-    190405 K63  0.2+  0.1+
    190404 C95 (0.9-  1.8-)   190405 P93  0.3-  0.0     190405 L01  0.1-  0.3-
    190404 C95  0.2-  1.2-    190405 P93  0.2-  0.1+    190405 L01  0.1-  0.1-
    190404 C95  0.1+  0.2-    190405 Q67  0.2+  0.3+    190405 L01  0.1-  0.2-
    190404 585  0.1-  0.8-    190405 Q67  0.3+  0.2+    190405 L01  0.0   0.1+
    190404 K30  0.8+  0.4+    190405 Q67  0.5+  0.4+    190405 K63  0.2+  0.1-
    190404 585  0.3-  1.0-    190405 900  0.1+  0.1-    190405 K63  0.0   1.1+
    190404 585  0.2-  1.3-    190405 900  0.3+  0.2+    190405 K63  0.0   0.0
    190404 585  0.0   0.8-    190405 900  0.0   0.0     190405 K63  0.0   0.6+
    190404 585  0.4+  0.2-    190405 K30  0.1-  0.7+    190405 K63  0.0   0.4-
    
    Ephemeris:
    2019 GW1                 a,e,i = 0.93, 0.11, 13                  q = 0.8272
    Date    TT    R. A. (2000) Decl.     Delta      r     Elong.  Phase     V
    2019 03 06    01 48 11.4 -69 56 36   0.1169  0.9567    69.2   104.2    25.3
    ...
    2019 03 21    02 32 21.5 -74 23 29   0.05940 0.9850    77.7    98.9    23.6
    ...
    2019 03 29    05 09 46.0 -79 30 42   0.02777 0.9984    89.5    88.9    21.5
    ...
    2019 04 04    11 23 26.1 -30 09 38   0.0087861.0074   147.9    31.9    17.3
    2019 04 05    11 45 11.4 -03 39 36   0.0089711.0088   162.7    17.1    16.9
    2019 04 06    12 01 10.8 +17 30 37   0.01087 1.0102   152.5    27.2    17.6
    ...
    2019 04 12    12 46 30.9 +53 28 43   0.03259 1.0178   117.7    60.7    21.0
    ...
    2019 04 20    13 07 12.6 +60 08 32   0.06471 1.0264   108.1    68.5    22.7
    ...
    2019 05 05    13 22 40.2 +61 55 56   0.1230  1.0375   100.3    73.0    24.3
    
    A. U. Tomatic                (C) Copyright 2019 MPC           M.P.E.C. 2019-G66
    

    Read MPEC 2019-G65 Read MPEC 2019-G67


    MPEC number:

    Enter an MPEC number in one of the following forms:

    • 1997-B01 (the full form)
    • J97B01 (the packed version of the full form)
    • B01 (the abbreviated form)